Вернуться в каталог

GLOBAL-19

АктивенСвязьVLEO
NORAD 55982·PAYLOAD·🇺🇸 United States

Запущен Mar 24, 2023 с Rocket Lab Launch Complex 1

Loading…

Ближайшие Пролёты (ближайшие 24 часа)

TLE

СвежийSource: Space-Track

Эпоха: Sep 14, 2026, 10:34 UTC

1 55982U 23041B   26257.44068707  .00010379  00000-0  27297-3 0  9997
2 55982  42.0021  41.2447 0007840 248.4216 111.5788 15.38549062195670

Отслеживайте GLOBAL-19 в реальном времени с AllMySat

Download on the App Store